Weather History for KY51 - January, 2013

Change the Weather History Date:

Friday, January 11, 2013

  Actual Average (KLSE) Record (KLSE)
Temperature  
Mean Temperature 38 °F 17 °F  
Max Temperature 42 °F 25 °F 49 °F (2002)
Min Temperature 33 °F 9 °F -26 °F (1912)
Degree Days  
Heating Degree Days 28 48  
Month to date heating degree days 524  
Since 1 July heating degree days 3368  
Cooling Degree Days 0 0  
Month to date cooling degree days 0  
Year to date cooling degree days 0  
Moisture  
Dew Point 39 °F    
Average Humidity 100    
Maximum Humidity 100    
Minimum Humidity 100    
Precipitation  
Precipitation 0.00 in 0.04 in 0.58 in (1890)
Month to date precipitation 0.38  
Year to date precipitation 0.38  
Snow  
Snow 0.00 in 0.30 in 6.30 in (1963)
Month to date snowfall 3.2  
Since 1 July snowfall 18.8  
Snow Depth -    
Sea Level Pressure  
Sea Level Pressure 29.59 in    
Wind  
Wind Speed 8 mph (SSE)    
Max Wind Speed 15 mph    
Max Gust Speed 21 mph    
Visibility 2 miles    
Events      
T = Trace of Precipitation, MM = Missing Value Source: NWS Daily Summary

Daily Weather History Graph

Daily Weather History Graph

Search for Another Location

Airport or City:

Trip Planner

Search our weather history database for the weather conditions in past years. The results will help you decide how hot, cold, wet, or windy it might be!

Date:

Astronomy

Jan. 11, 2013 Rise Set
Actual Time 7:35 AM CST 4:48 PM CST
Civil Twilight 7:03 AM CST 5:20 PM CST
Nautical Twilight 6:27 AM CST 5:55 PM CST
Astronomical Twilight 5:53 AM CST 6:30 PM CST
Moon 7:07 AM CST (1/11) 5:08 PM CST (1/11)
Length of Visible Light 10h 17m
Length of Day
9h 12m
Waning Crescent, 0% of the Moon is Illuminated
Jan 11
Waning Crescent
Jan 11
New
Jan 18
First Quarter
Jan 26
Full
Feb 3
Last Quarter

Hourly Weather History & Observations

Time (CST) Temp. Windchill Dew Point Humidity Pressure Visibility Wind Dir Wind Speed Gust Speed Precip Events Conditions
12:33 AM 33.8 °F 26.4 °F 33.8 °F 100% 29.74 in 1.0 mi SE 9.2 mph - N/A   Overcast
12:53 AM 35.6 °F 29.2 °F 35.6 °F 100% 29.74 in 0.5 mi ESE 8.1 mph - N/A   Overcast
1:35 AM 35.6 °F 28.6 °F 35.6 °F 100% 29.73 in 0.2 mi SE 9.2 mph - N/A   Overcast
1:53 AM 35.6 °F 29.9 °F 35.6 °F 100% 29.74 in 0.5 mi SE 6.9 mph - N/A   Overcast
2:53 AM 35.6 °F - 35.6 °F 100% 29.72 in 0.2 mi Calm Calm - N/A   Overcast
3:13 AM 35.6 °F - 35.6 °F 100% 29.71 in 0.2 mi Calm Calm - N/A   Overcast
3:35 AM 33.8 °F - 33.8 °F 100% 29.69 in 0.2 mi Calm Calm - N/A   Overcast
3:53 AM 35.6 °F - 35.6 °F 100% 29.67 in 0.5 mi Calm Calm - N/A   Overcast
4:14 AM 33.8 °F 29.6 °F 33.8 °F 100% 29.66 in 0.5 mi ESE 4.6 mph - N/A   Overcast
4:53 AM 35.6 °F 30.7 °F 35.6 °F 100% 29.65 in 0.8 mi SE 5.8 mph - N/A   Overcast
5:13 AM 35.6 °F 30.7 °F 35.6 °F 100% 29.64 in 2.5 mi SSE 5.8 mph - N/A   Overcast
5:33 AM 35.6 °F 30.7 °F 35.6 °F 100% 29.64 in 2.5 mi SE 5.8 mph - N/A   Overcast
5:55 AM 35.6 °F 31.7 °F 35.6 °F 100% 29.65 in 0.8 mi South 4.6 mph - N/A   Overcast
7:13 AM 35.6 °F 29.2 °F 35.6 °F 100% 29.64 in 0.5 mi South 8.1 mph - N/A   Overcast
7:56 AM 35.6 °F 29.9 °F 35.6 °F 100% 29.63 in 0.2 mi South 6.9 mph - N/A   Overcast
8:35 AM 35.6 °F 29.2 °F 35.6 °F 100% 29.63 in 0.2 mi SSE 8.1 mph - N/A   Overcast
9:16 AM 35.6 °F 29.2 °F 35.6 °F 100% 29.63 in 0.2 mi SSE 8.1 mph - N/A   Overcast
9:56 AM 35.6 °F 30.7 °F 35.6 °F 100% 29.64 in 0.2 mi South 5.8 mph - N/A   Overcast
10:14 AM 35.6 °F 29.9 °F 35.6 °F 100% 29.63 in 0.2 mi South 6.9 mph - N/A   Overcast
10:56 AM 35.6 °F 27.5 °F 35.6 °F 100% 29.64 in 0.2 mi South 11.5 mph - N/A   Overcast
1:15 PM 37.4 °F 32.8 °F 37.4 °F 100% 29.59 in 0.2 mi South 5.8 mph - N/A   Overcast
1:53 PM 37.4 °F 30.8 °F 37.4 °F 100% 29.56 in 0.2 mi SE 9.2 mph - N/A   Overcast
2:53 PM 39.2 °F 32.5 °F 39.2 °F 100% 29.55 in 0.2 mi SSE 10.4 mph - N/A   Overcast
3:33 PM 39.2 °F 33.0 °F 39.2 °F 100% 29.55 in 0.2 mi SSE 9.2 mph - N/A   Overcast
3:55 PM 37.4 °F 30.8 °F 37.4 °F 100% 29.55 in 0.2 mi SSE 9.2 mph - N/A   Overcast
4:15 PM 37.4 °F 29.3 °F 37.4 °F 100% 29.56 in 0.2 mi SSE 12.7 mph - N/A   Overcast
4:35 PM 39.2 °F 30.8 °F 39.2 °F 100% 29.56 in 0.2 mi South 15.0 mph 20.7 mph N/A   Overcast
4:55 PM 41.0 °F 33.5 °F 41.0 °F 100% 29.55 in 0.2 mi SSE 13.8 mph - N/A   Overcast
5:15 PM 41.0 °F 33.9 °F 41.0 °F 100% 29.55 in 0.2 mi SSE 12.7 mph - N/A   Overcast
5:35 PM 41.0 °F 33.5 °F 41.0 °F 100% 29.54 in 0.2 mi SSE 13.8 mph 18.4 mph N/A   Overcast
5:55 PM 41.0 °F 33.5 °F 41.0 °F 100% 29.54 in 0.2 mi South 13.8 mph - N/A   Overcast
6:15 PM 41.0 °F 33.5 °F 41.0 °F 100% 29.54 in 0.2 mi South 13.8 mph 19.6 mph N/A   Overcast
6:35 PM 41.0 °F 35.2 °F 41.0 °F 100% 29.54 in 0.2 mi South 9.2 mph 17.3 mph N/A   Overcast
6:55 PM 42.8 °F 36.2 °F 42.8 °F 100% 29.54 in 1.0 mi South 12.7 mph - N/A   Overcast
7:15 PM 42.8 °F 37.0 °F 42.8 °F 100% 29.54 in 0.5 mi South 10.4 mph - N/A   Overcast
7:35 PM 42.8 °F 36.2 °F 42.8 °F 100% 29.54 in 2.0 mi South 12.7 mph 18.4 mph N/A   Overcast
7:55 PM 42.8 °F 36.2 °F 42.8 °F 100% 29.52 in 2.5 mi SSE 12.7 mph 18.4 mph N/A   Overcast
8:15 PM 42.8 °F 35.8 °F 42.8 °F 100% 29.52 in 2.5 mi SSE 13.8 mph - N/A   Overcast
8:35 PM 42.8 °F 35.4 °F 42.8 °F 100% 29.52 in 4.0 mi SSE 15.0 mph - N/A   Overcast
8:55 PM 42.8 °F 38.0 °F 42.8 °F 100% 29.53 in 4.0 mi South 8.1 mph - N/A   Overcast
9:15 PM 41.0 °F 34.7 °F 41.0 °F 100% 29.52 in 3.0 mi SSE 10.4 mph - N/A   Overcast
9:35 PM 41.0 °F 33.9 °F 41.0 °F 100% 29.51 in 3.0 mi South 12.7 mph - N/A   Scattered Clouds
9:55 PM 41.0 °F 34.3 °F 41.0 °F 100% 29.51 in 4.0 mi South 11.5 mph - N/A   Clear
10:15 PM 41.0 °F 34.3 °F 41.0 °F 100% 29.51 in 7.0 mi South 11.5 mph - N/A   Clear
10:35 PM 42.8 °F 36.6 °F 42.8 °F 100% 29.51 in 10.0 mi South 11.5 mph 17.3 mph N/A   Clear
11:15 PM 42.8 °F 37.0 °F 42.8 °F 100% 29.50 in 10.0 mi South 10.4 mph - N/A   Clear
11:35 PM 42.8 °F 37.0 °F 42.8 °F 100% 29.49 in 10.0 mi South 10.4 mph - N/A   Clear
11:55 PM 42.8 °F 36.6 °F 42.8 °F 100% 29.49 in 10.0 mi South 11.5 mph - N/A   Clear